This demonstration page uses our WeatherBlox Daily Observations layout. Learn more.

Left ArrowRight Arrow

39.92423, -83.80882

Hourly Observations for February 12, 2020

Temp ( °F °C ) Dew Point ( °F °C ) Humidity (%) Winds ( mph kmh ) Pressure ( in mb ) Visibility ( mi km ) Precip ( " mm )
12:56 am 00:56 Clear 30 -1.1 29 -1.7 96 96 W 5 7 30.22 1023 10 16 N/A
1:56 am 01:56 Clear 31 -0.6 28 -2.2 89 89 W 6 9 30.22 1023 10 16 N/A
2:56 am 02:56 Clear 29 -1.7 29 -1.7 100 100 N N/A 30.21 1023 10 16 N/A
3:56 am 03:56 Clear 26 -3.3 26 -3.3 100 100 N N/A 30.19 1022 9 14 N/A
4:56 am 04:56 Clear 29 -1.7 28 -2.2 96 96 SSE 3 6 30.19 1022 9 14 N/A
5:56 am 05:56 Clear 27 -2.8 27 -2.8 100 100 N N/A 30.20 1023 8 13 N/A
6:56 am 06:56 Clear with Mist and Fog 25 -3.9 25 -3.9 100 100 E 3 6 30.19 1023 5 8 N/A
7:56 am 07:56 Sunny with Mist and Fog 25 -3.9 25 -3.9 100 100 ESE 5 7 30.18 1022 5 8 N/A
8:56 am 08:56 Sunny 30 -1.1 28 -2.2 92 92 SE 7 11 30.18 1022 10 16 N/A
9:56 am 09:56 Sunny 31 -0.6 29 -1.7 92 92 SSE 10 17 30.18 1022 10 16 N/A
10:56 am 10:56 Sunny 32 undefined 27 -2.8 82 82 SE 9 15 30.16 1021 10 16 N/A
11:56 am 11:56 Partly Cloudy 33 0.6 27 -2.8 78 78 SSE 9 15 30.12 1020 10 16 N/A
12:56 pm 12:56 Cloudy 33 0.6 27 -2.8 78 78 SSE 7 11 30.15 1021 10 16 N/A
1:56 pm 13:56 Cloudy 34 1.1 29 -1.7 82 82 ESE 12 19 30.07 1018 10 16 N/A
2:56 pm 14:56 Cloudy with Light Wintry Mix 34 1.1 30 -1.1 85 85 ESE 10 17 30.03 1017 8 13 0.00 0.00
3:56 pm 15:56 Cloudy with Light Rain 33 0.6 32 undefined 96 96 E 9 15 30.00 1016 6 10 0.00 0.00
4:43 pm 16:43 Cloudy with Light Snow 32 undefined 32 undefined 100 100 E 7 11 29.99 1016 2 3 0.00 0.00
4:56 pm 16:56 Cloudy with Light Snow 32 undefined 32 undefined 100 100 E 8 13 29.98 1015 1 2 0.00 0.00
5:01 pm 17:01 Cloudy with Light Snow 32 undefined 32 undefined 100 100 E 7 11 29.98 1015 1 2 0.00 0.00
5:05 pm 17:05 Cloudy with Snow 32 undefined 32 undefined 100 100 E 8 13 29.98 1015 1 1 0.00 0.00
5:12 pm 17:12 Cloudy with Snow 32 undefined 32 undefined 100 100 E 10 17 29.98 1015 1 1 0.00 0.00
5:25 pm 17:25 Cloudy with Snow 32 undefined 32 undefined 100 100 E 9 15 29.97 1015 1 1 0.00 0.00
5:45 pm 17:45 Cloudy with Light Snow 30 -1 30 -1 100 100 E 9 15 29.97 1015 1 1 0.00 0.00
5:56 pm 17:56 Cloudy with Light Snow 31 -0.6 31 -0.6 100 100 E 9 15 29.94 1014 1 1 0.00 0.00
6:00 pm 18:00 Cloudy with Light Snow 30 -1 30 -1 100 100 E 9 15 29.96 1014 1 2 0.00 0.00
6:07 pm 18:07 Cloudy with Light Snow 30 -1 30 -1 100 100 E 9 15 29.95 1014 1 2 0.00 0.00
6:29 pm 18:29 Cloudy with Light Snow 30 -1 30 -1 100 100 E 10 17 29.94 1014 2 3 0.00 0.00
6:32 pm 18:32 Cloudy with Light Snow 30 -1 30 -1 100 100 E 10 17 29.95 1014 2 3 0.00 0.00
6:43 pm 18:43 Cloudy with Light Snow 32 undefined 32 undefined 100 100 E 9 15 29.94 1014 3 4 0.00 0.00
6:51 pm 18:51 Cloudy with Light Snow 32 undefined 32 undefined 100 100 E 8 13 29.94 1014 2 3 0.00 0.00
6:56 pm 18:56 Cloudy with Light Snow 32 undefined 32 undefined 100 100 E 8 13 29.92 1013 3 4 0.00 0.00
7:16 pm 19:16 Cloudy with Light Snow 32 undefined 32 undefined 100 100 ENE 10 17 29.90 1013 1 2 0.00 0.00
7:32 pm 19:32 Cloudy with Light Snow 32 undefined 32 undefined 100 100 ENE 13 20 29.85 1011 2 3 0.00 0.00
7:43 pm 19:43 Cloudy with Light Snow 32 undefined 32 undefined 100 100 ENE 13 20 29.86 1011 3 4 0.00 0.00
7:45 pm 19:45 Cloudy with Light Snow 32 undefined 32 undefined 100 100 ENE 13 20 29.86 1011 3 5 0.00 0.00
7:52 pm 19:52 Cloudy with Light Snow 32 undefined 32 undefined 100 100 ENE 13 20 29.85 1011 3 5 0.00 0.00
7:56 pm 19:56 Cloudy with Light Freezing Rain 32 undefined 32 undefined 100 100 ENE 13 20 29.84 1011 3 5 0.00 0.00
8:19 pm 20:19 Cloudy with Light Snow 32 undefined 32 undefined 100 100 E 9 15 29.87 1012 4 6 0.00 0.00
8:29 pm 20:29 Cloudy with Light Freezing Rain 32 undefined 32 undefined 100 100 E 10 17 29.86 1011 4 6 0.00 0.00
8:54 pm 20:54 Cloudy with Light Freezing Rain 32 undefined 32 undefined 100 100 E 16 26 29.76 1008 4 6 0.00 0.00
8:56 pm 20:56 Cloudy with Light Freezing Rain 32 undefined 32 undefined 100 100 E 16 26 29.74 1007 4 6 0.00 0.00
9:33 pm 21:33 Cloudy with Light Freezing Rain 34 1 34 1 100 100 ENE 13 20 29.74 1007 10 16 0.00 0.00
9:45 pm 21:45 Cloudy with Light Rain 34 1 34 1 100 100 E 10 17 29.78 1008 10 16 0.00 0.00
9:56 pm 21:56 Mostly Cloudy with Light Rain 33 0.6 33 0.6 100 100 ESE 13 20 29.75 1008 10 16 0.00 0.00
10:08 pm 22:08 Cloudy with Light Rain 34 1 34 1 100 100 E 8 13 29.78 1008 3 4 0.00 0.00
11:42 pm 23:42 Cloudy with Mist and Fog 34 1 34 1 100 100 E 7 11 29.74 1007 3 5 0.00 0.00
11:56 pm 23:56 Cloudy with Mist and Fog 33 0.6 33 0.6 100 100 NNE 6 9 29.75 1007 4 6 0.00 0.00

Powered by AerisWeather